Location: Aigremont
(47.7188°N, 3.8925°E)
Time: 06:14:28
(UTC+00:00)

BREEZE-M DEB (TANK) - Pass Details

Date: 18 February 2020
Orbit: 324 x 11711 km, 49.7° (Epoch: 28 March)

Event Time Altitude Azimuth Distance (km) Brightness Sun altitude
Exits shadow 03:57:43 54° 113° (ESE) 856 4.4 -28.9°
Drops below altitude 10° 04:04:31 10° 70° (ENE) 3,787 8.5 -27.8°
Sets 04:10:11 0° 69° (ENE) 6,196 9.9 -26.8°
